[[{"header":{"parameterUnit":"m.s-1","parameterCategory":1,"la1":30.2991,"la2":30.254,"lo1":-89.0895,"lo2":-89.0444,"dy":0.0017,"dx":0.0017,"nx":28,"ny":28,"refTime":"2024-04-11T03:00:00:Z","depth":0,"parameterNumber":2,"parameterNumberName":"U-component_of_WINDS"},"data":[0,0,0,0,0,0,0,0,0,0,0,0,0,0,0,0,0,0,0,0,0,0,0,0,0,0,0,0,0,0,0,0,0,0,0,0,0,0,0,0,0,0,0,0,0,0,0,0,0,0,0,0,0,0,0,0,0,0,2.0664,2.0665,0,2.07,2.07,2.0701,2.0678,2.0677,2.0675,2.0674,2.0715,2.0717,2.0719,0,0,0,0,0,0,0,0,0,0,0,0,0,2.0582,2.0584,2.0664,2.0665,2.0665,2.07,2.07,2.0701,2.0678,2.0676,2.0675,2.0674,2.0715,2.0717,2.072,0,0,0,0,0,0,0,0,0,0,0,0,0,2.0618,2.0584,2.0664,2.0658,2.0657,2.07,2.07,2.0701,2.0678,2.0676,2.0675,2.0673,2.0714,2.0717,2.072,2.0772,0,0,2.0729,2.0731,0,0,0,0,0,0,0,0,2.0616,2.0621,2.0658,2.0658,2.0658,2.0683,2.0686,2.0725,2.0678,2.067,2.0674,2.0673,2.0706,2.071,2.072,2.0774,2.0775,2.073,2.0732,2.0733,2.0734,0,0,0,0,0,0,0,2.0614,2.0619,2.0678,2.0659,2.0659,2.0655,2.0658,2.0694,2.0697,2.0671,2.0669,2.0674,2.0706,2.0717,2.0721,2.0776,2.073,2.0732,2.0734,2.0736,2.0879,2.088,0,0,0,0,0,0,2.0611,2.0617,2.0677,2.068,2.0632,2.0658,2.0661,2.0676,2.0697,2.0698,2.0675,2.0672,2.0712,2.0717,2.0722,2.0787,2.0733,2.0736,2.0738,2.0877,2.0879,2.0881,0,0,0,0,0,0,2.0609,2.0616,2.0676,2.0648,2.0655,2.0661,2.0678,2.0678,2.0689,2.0699,2.0701,2.0686,2.0711,2.0718,2.076,2.0788,2.0737,2.074,2.0875,2.0877,2.088,2.0915,0,0,0,0,0,0,2.0607,2.0616,2.0634,2.0649,2.0657,2.0712,2.068,2.068,2.0694,2.0691,2.071,2.0711,2.0711,2.0756,2.0763,2.0791,2.0743,2.0872,2.0876,2.0879,2.0912,2.0919,2.0925,0,0,0,0,0,2.0604,2.0643,2.0635,2.0642,2.0679,2.0713,2.0718,2.0715,2.0696,2.0716,2.0723,2.0711,2.0784,2.076,2.0769,2.0798,2.087,2.0875,2.0879,2.0909,2.0917,2.0925,0,0,0,0,0,0,2.0632,2.0644,2.0636,2.068,2.0696,2.0709,2.0733,2.0724,2.0746,2.0743,2.074,2.0744,2.0789,2.0798,2.0772,2.0852,2.0824,2.0831,2.0844,2.0853,2.0859,2.0857,2.0745,0,0,0,0,0,2.0643,2.0667,2.0678,2.0716,2.0724,2.0727,2.0742,2.0739,2.0755,2.0762,2.0772,2.079,2.0817,2.0835,2.0861,2.0913,2.0918,2.0938,2.0944,2.095,2.0956,2.0987,2.0997,2.0895,2.0895,2.0895,0,0,2.0666,2.0676,2.0692,2.0722,2.0733,2.0761,2.0733,2.0763,2.0784,2.0767,2.0808,2.0816,2.0837,2.0885,2.0907,2.0894,2.0985,2.0955,2.096,2.0962,2.0993,2.1003,2.1011,2.0898,2.0898,2.0897,0,0,2.0723,2.0732,2.0766,2.0779,2.0797,2.0799,2.0808,2.0823,2.0828,2.0869,2.0857,2.0884,2.093,2.0946,2.096,2.1027,2.1017,2.1035,2.1071,2.1102,2.111,2.1117,2.1144,2.1153,2.1041,2.1041,2.1041,0,2.0751,2.079,2.0785,2.0817,2.0831,2.0816,2.0853,2.0866,2.0892,2.0903,2.0888,2.0948,2.096,2.1014,2.103,2.1041,2.1053,2.1033,2.1109,2.1116,2.1123,2.1148,2.1158,2.1043,2.1043,2.1043,2.1042,0,2.0824,2.0852,2.0878,2.0903,2.0921,2.0954,2.0957,2.0976,2.0972,2.0977,2.1021,2.1036,2.1065,2.1078,2.1074,2.1132,2.1124,2.1109,2.1082,2.1135,2.1159,2.1168,2.1046,2.1045,2.1045,2.1044,0,0,2.0898,2.0922,2.0931,2.0944,2.0964,2.0987,2.1022,2.105,2.1068,2.1087,2.1118,2.1159,2.1146,2.1162,2.116,2.1187,2.1243,2.117,2.117,2.1185,2.1312,2.1324,2.1335,2.1237,2.1239,2.124,2.1311,0,2.0958,2.1017,2.1015,2.1071,2.1098,2.1086,2.1117,2.1134,2.1141,2.1167,2.1175,2.1205,2.1184,2.1195,2.1221,2.1231,2.1269,2.1225,2.1269,2.127,2.1265,2.1347,2.136,2.1426,2.132,2.1322,2.1323,0,2.1035,2.1057,2.1116,2.1134,2.1146,2.1173,2.1201,2.1225,2.1246,2.1249,2.1269,2.1264,2.1302,2.1274,2.1329,2.1299,2.1317,2.1325,2.1328,2.1333,2.13,2.1357,2.1447,2.1458,2.1337,2.1336,2.1335,0,2.1087,2.1131,2.1172,2.1183,2.1205,2.1226,2.1236,2.1255,2.1273,2.1298,2.1311,2.134,2.1356,2.1381,2.1385,2.1363,2.1441,2.1412,2.1448,2.1448,2.1465,2.1464,2.1561,2.1474,2.1474,2.1474,2.1473,0,2.1155,2.1192,2.1196,2.1221,2.1264,2.1262,2.1305,2.1314,2.1332,2.1361,2.1353,2.1381,2.1384,2.1414,2.1418,2.1465,2.1472,2.1478,2.1479,2.1479,2.1479,2.1492,2.1488,2.1476,2.1476,2.1475,2.1475,0,2.1219,2.1223,2.1268,2.1286,2.1291,2.1322,2.1339,2.1365,2.1371,2.1409,2.1418,2.1429,2.1464,2.1471,2.1512,2.1515,2.1572,2.1567,2.1565,2.1565,2.1601,2.1598,2.1711,2.1727,2.1627,2.1628,2.1629,0,2.1263,2.1291,2.1312,2.1331,2.1343,2.1372,2.1391,2.1392,2.1412,2.144,2.1464,2.1498,2.1526,2.1583,2.1597,2.163,2.1627,2.1665,2.1632,2.1633,2.1631,2.163,2.1634,2.1671,2.1672,2.1673,2.1674,0,2.1341,2.1342,2.1368,2.1397,2.1419,2.1442,2.1463,2.1479,2.1484,2.1508,2.1543,2.1565,2.1608,2.1644,2.1677,2.1691,2.1685,2.1684,2.1694,2.1696,2.1694,2.1698,2.1584,2.1681,2.1681,2.168,2.168,2.1679,2.1398,2.1424,2.1443,2.1474,2.149,2.1511,2.1537,2.1548,2.1577,2.1611,2.1611,2.1651,2.1675,2.1719,2.1735,2.1769,2.1757,2.1771,2.1775,2.178,2.1784,2.1688,2.1775,2.1774,2.1774,2.1774,2.1774,0,2.1478,2.149,2.1518,2.1549,2.1574,2.1564,2.1588,2.1611,2.1646,2.1667,2.1695,2.1738,2.1773,2.179,2.1826,2.185,2.1848,2.1859,2.1858,2.1863,2.1791,2.1779,2.186,2.186,2.186,2.186,2.186,2.186,2.1522,2.1566,2.157,2.1623,2.1636,2.1674,2.1689,2.171,2.1728,2.1776,2.1805,2.1815,2.1836,2.1874,2.1907,2.1911,2.1926,2.1939,2.1943,2.1876,2.1867,2.1859,2.1848,2.1942,2.1942,2.2012,2.2012,2.2013]},{"header":{"parameterUnit":"m.s-1","parameterCategory":1,"la1":30.2991,"la2":30.254,"lo1":-89.0895,"lo2":-89.0444,"dy":0.0017,"dx":0.0017,"nx":28,"ny":28,"refTime":"2024-04-11T03:00:00:Z","depth":0,"parameterNumber":3,"parameterNumberName":"V-component_of_WINDS"},"data":[0,0,0,0,0,0,0,0,0,0,0,0,0,0,0,0,0,0,0,0,0,0,0,0,0,0,0,0,0,0,0,0,0,0,0,0,0,0,0,0,0,0,0,0,0,0,0,0,0,0,0,0,0,0,0,0,0,0,-2.3198,-2.3198,0,-2.3131,-2.313,-2.313,-2.3099,-2.3099,-2.3099,-2.3099,-2.3027,-2.3025,-2.3023,0,0,0,0,0,0,0,0,0,0,0,0,0,-2.3294,-2.3293,-2.3198,-2.3198,-2.3197,-2.3131,-2.313,-2.3129,-2.3099,-2.3099,-2.3099,-2.3099,-2.3027,-2.3025,-2.3022,0,0,0,0,0,0,0,0,0,0,0,0,0,-2.3242,-2.3292,-2.3199,-2.3174,-2.3171,-2.3131,-2.313,-2.3129,-2.3099,-2.3099,-2.3099,-2.3099,-2.3028,-2.3025,-2.3022,-2.3002,0,0,-2.3013,-2.3012,0,0,0,0,0,0,0,0,-2.3245,-2.3239,-2.3178,-2.3175,-2.3172,-2.3123,-2.3138,-2.3086,-2.3098,-2.3126,-2.3099,-2.3099,-2.3058,-2.3053,-2.304,-2.2999,-2.2995,-2.3013,-2.3011,-2.301,-2.3009,0,0,0,0,0,0,0,-2.3249,-2.3242,-2.3172,-2.3177,-2.3173,-2.3164,-2.3156,-2.3128,-2.3092,-2.3123,-2.3121,-2.3114,-2.3057,-2.3043,-2.3038,-2.2994,-2.3013,-2.301,-2.3008,-2.3007,-2.2928,-2.2928,0,0,0,0,0,0,-2.3257,-2.3245,-2.3174,-2.317,-2.321,-2.3162,-2.3154,-2.3139,-2.3093,-2.3086,-2.3114,-2.3112,-2.3048,-2.3042,-2.3035,-2.3006,-2.301,-2.3007,-2.3005,-2.2928,-2.2928,-2.2928,0,0,0,0,0,0,-2.326,-2.3251,-2.3177,-2.3207,-2.3196,-2.316,-2.3144,-2.3137,-2.3124,-2.3085,-2.3078,-2.3107,-2.3048,-2.304,-2.301,-2.3003,-2.3006,-2.3003,-2.2929,-2.2928,-2.2928,-2.2948,0,0,0,0,0,0,-2.3262,-2.3252,-2.3246,-2.3207,-2.3195,-2.3154,-2.3143,-2.3136,-2.3119,-2.3117,-2.3077,-2.307,-2.3047,-2.3014,-2.3007,-2.2999,-2.3001,-2.2929,-2.2929,-2.2928,-2.2948,-2.2949,-2.2949,0,0,0,0,0,-2.3266,-2.3255,-2.3246,-2.3237,-2.3186,-2.3154,-2.3147,-2.3122,-2.3119,-2.3111,-2.3085,-2.3071,-2.3005,-2.3012,-2.3003,-2.2994,-2.2929,-2.2929,-2.2928,-2.2948,-2.2949,-2.2949,0,0,0,0,0,0,-2.3294,-2.3249,-2.3239,-2.3215,-2.3188,-2.3149,-2.3138,-2.3124,-2.3097,-2.3096,-2.3065,-2.3056,-2.3028,-2.3008,-2.3016,-2.297,-2.2966,-2.2963,-2.2984,-2.2984,-2.2985,-2.299,-2.2998,0,0,0,0,0,-2.3297,-2.3276,-2.3237,-2.322,-2.3207,-2.3175,-2.316,-2.3142,-2.3113,-2.3102,-2.3074,-2.3045,-2.3017,-2.3,-2.2972,-2.2945,-2.2934,-2.2934,-2.2935,-2.2936,-2.2933,-2.2914,-2.2912,-2.2925,-2.2925,-2.2925,0,0,-2.3304,-2.3277,-2.3265,-2.3224,-2.3202,-2.3178,-2.3165,-2.3142,-2.3123,-2.3098,-2.3067,-2.3046,-2.3011,-2.2981,-2.2967,-2.2964,-2.2927,-2.2935,-2.2935,-2.2933,-2.2913,-2.2911,-2.291,-2.2925,-2.2925,-2.2925,0,0,-2.3303,-2.3282,-2.3263,-2.3241,-2.3206,-2.3185,-2.318,-2.3142,-2.3126,-2.3096,-2.3075,-2.3051,-2.3005,-2.298,-2.2961,-2.2948,-2.2932,-2.294,-2.2942,-2.2923,-2.2922,-2.2921,-2.2913,-2.2911,-2.2938,-2.2938,-2.2938,0,-2.3316,-2.3281,-2.3255,-2.3232,-2.3213,-2.3189,-2.3168,-2.3147,-2.3105,-2.3092,-2.3089,-2.3028,-2.3003,-2.2966,-2.2962,-2.2949,-2.294,-2.2944,-2.2925,-2.2923,-2.2922,-2.2914,-2.2911,-2.2939,-2.2939,-2.2938,-2.2938,0,-2.3296,-2.3272,-2.3261,-2.3221,-2.3201,-2.3179,-2.3148,-2.313,-2.3114,-2.3092,-2.3058,-2.3027,-2.2991,-2.2981,-2.2966,-2.294,-2.2939,-2.2931,-2.2926,-2.2922,-2.2914,-2.2911,-2.294,-2.294,-2.2939,-2.2939,0,0,-2.3313,-2.3258,-2.3254,-2.3234,-2.3193,-2.3173,-2.3148,-2.3114,-2.3098,-2.3069,-2.3045,-2.3005,-2.2996,-2.2975,-2.2956,-2.2939,-2.2926,-2.2933,-2.2931,-2.293,-2.2893,-2.2898,-2.2895,-2.2916,-2.2916,-2.2915,-2.2895,0,-2.3306,-2.3262,-2.3237,-2.3203,-2.3178,-2.3153,-2.3131,-2.3102,-2.3079,-2.3053,-2.3028,-2.2999,-2.2991,-2.2977,-2.296,-2.2932,-2.2918,-2.2933,-2.2892,-2.2891,-2.29,-2.2892,-2.2898,-2.288,-2.2892,-2.2891,-2.2891,0,-2.3292,-2.3263,-2.3227,-2.3186,-2.3174,-2.3155,-2.3119,-2.3096,-2.3061,-2.3045,-2.302,-2.3,-2.297,-2.2968,-2.2924,-2.2934,-2.2915,-2.2899,-2.2897,-2.2891,-2.289,-2.2883,-2.2874,-2.2871,-2.2886,-2.2887,-2.2887,0,-2.3305,-2.3258,-2.3229,-2.3213,-2.3164,-2.3151,-2.313,-2.3095,-2.3075,-2.3043,-2.3028,-2.2993,-2.2974,-2.2946,-2.2915,-2.2917,-2.2873,-2.2869,-2.2857,-2.2857,-2.2848,-2.2849,-2.2834,-2.2839,-2.2839,-2.2839,-2.2839,0,-2.3299,-2.3277,-2.3233,-2.3216,-2.3189,-2.3158,-2.3132,-2.3109,-2.3077,-2.3052,-2.3028,-2.3005,-2.2967,-2.2938,-2.2914,-2.2879,-2.2871,-2.2855,-2.2849,-2.2857,-2.2858,-2.2843,-2.2843,-2.2838,-2.2839,-2.2839,-2.2839,0,-2.331,-2.328,-2.3246,-2.3202,-2.319,-2.3172,-2.3134,-2.3114,-2.3089,-2.3057,-2.3048,-2.3008,-2.2973,-2.294,-2.2892,-2.2876,-2.284,-2.2833,-2.2852,-2.2848,-2.2836,-2.2837,-2.281,-2.2803,-2.2815,-2.2815,-2.2815,0,-2.3307,-2.3289,-2.3243,-2.3225,-2.3204,-2.3176,-2.3154,-2.3122,-2.31,-2.3057,-2.3041,-2.3004,-2.2972,-2.2916,-2.2881,-2.2843,-2.2834,-2.2827,-2.2828,-2.2835,-2.2831,-2.2831,-2.2828,-2.2827,-2.2827,-2.2827,-2.2827,0,-2.3305,-2.329,-2.3261,-2.3226,-2.3201,-2.3171,-2.3141,-2.3127,-2.3088,-2.3065,-2.3028,-2.3003,-2.2953,-2.2915,-2.2873,-2.2849,-2.283,-2.2827,-2.2821,-2.2829,-2.2839,-2.2831,-2.2851,-2.2828,-2.2828,-2.2828,-2.2828,-2.2828,-2.3307,-2.3289,-2.3253,-2.322,-2.3193,-2.3165,-2.3143,-2.3114,-2.3084,-2.3041,-2.3024,-2.2985,-2.2946,-2.2888,-2.2863,-2.2831,-2.2827,-2.282,-2.2818,-2.2816,-2.2817,-2.2846,-2.2823,-2.2823,-2.2823,-2.2823,-2.2823,0,-2.3302,-2.3277,-2.3247,-2.3204,-2.3177,-2.3164,-2.3128,-2.3106,-2.3073,-2.3039,-2.3007,-2.2963,-2.2925,-2.2886,-2.2845,-2.2826,-2.2817,-2.2817,-2.2817,-2.2811,-2.2824,-2.2831,-2.2825,-2.2825,-2.2825,-2.2825,-2.2825,-2.2825,-2.3296,-2.3263,-2.3244,-2.3196,-2.317,-2.3133,-2.3114,-2.3085,-2.3058,-2.301,-2.2978,-2.2953,-2.2916,-2.2872,-2.2835,-2.2824,-2.2809,-2.2811,-2.2797,-2.281,-2.281,-2.281,-2.2817,-2.2808,-2.2808,-2.2786,-2.2786,-2.2786]}]]